Tracking 35280 objects as of 7-Sep-2026
HD Live streaming from Space Station
objects crossing your sky now

STARLINK-32762

Track STARLINK-32762 now!
10-day predictions
STARLINK-32762 is classified as:


NORAD ID: 62748
Int'l Code: 2025-014P
Launch date: January 21, 2025
Source: United States (US)
Launch site: AIR FORCE EASTERN TEST RANGE (AFETR)
Your satellite tracking list
Your tracking list is empty




NASA's NSSDC Master Catalog

Two Line Element Set (TLE):
1 62748U 25014P   26250.29363101  .00013079  00000-0  48378-3 0  9992
2 62748  43.0012 212.0478 0001480 268.3865  91.6817 15.27591217 90993
Source of the keplerian elements: AFSPC